User: anonymous   Login
Location: Eitze
(52.9840°N, 9.6894°E)
Time: 02:39:21
(UTC+00:00)
Language:

Cosmos 1500 Rocket - Orbit

View from above orbital plane
View from above orbital plane
View from above satellite
View from above satellite

Ground track
Ground track

The orbit data is extracted from the following two-line orbital elements,

1 14373U 83099B   25191.51249002  .00000319  00000-0  33760-4 0  9994
2 14373  82.5388   9.7598 0018441 216.5212 143.4748 14.85906020236657
Epoch (UTC): 10 July 2025 12:17:59
Eccentricity: 0.0018441
inclination: 82.5388°
perigee height: 598 km
apogee height: 623 km
right ascension of ascending node: 9.7598°
argument of perigee: 216.5212°
revolutions per day: 14.85906020
mean anomaly at epoch: 143.4748°
orbit number at epoch: 23665

The dashed part of the orbit path shows where the satellite is in the earth's shadow,  

DLR